Location: Kermapucano
(48.0667°N, 3.3000°W)
Time: 20:06:24
(UTC+00:00)

FENGYUN 3A - Pass Details

Date: 29 November 2020
Orbit: 823 x 837 km, 98.4° (Epoch: 27 January)

Event Time Altitude Azimuth Distance (km) Brightness Sun altitude
Rises 04:51:29 0° 14° (NNE) 3,393 7.0 -27.4°
Reaches altitude 10° 04:53:52 10° 15° (NNE) 2,453 6.2 -27.0°
Maximum altitude 04:59:19 85° 103° (ESE) 841 3.6 -26.1°
Drops below altitude 10° 05:04:43 10° 194° (SSW) 2,426 6.0 -25.2°
Sets 05:07:03 0° 195° (SSW) 3,353 6.7 -24.8°
